Theta_e
306 307 307 307 307 307 307 308 309 309 310 311 313 313 314 315 315 321 318 326 326 330 331 342 345 351 347 356 357 354 361 363 362 359 342 337 342 347 345 353 352 350 350 348 349
306 307 307 306 306 307 307 308 309 310 310 311 312 313 313 315 320 328 333 326 329 328 338 347 352 356 360 361 351 355 358 359 358 357 345 339 339 340 351 354 352 351 348 348 348
305 306 306 306 306 307 307 309 310 310 310 311 311 313 314 318 333 339 334 331 329 328 345 348 350 354 359 356 357 354 358 354 352 352 352 342 339 342 351 353 351 352 350 348 347
306 306 306 306 306 307 307 308 309 310 310 310 311 313 315 330 346 332 334 332 331 330 347 349 352 349 351 357 357 357 354 353 349 353 352 342 339 346 347 348 348 348 347 348 348
306 306 306 306 306 307 307 308 309 310 311 311 311 314 321 329 333 335 336 334 331 344 346 352 355 353 357 349 350 351 350 348 350 351 352 345 342 342 343 349 348 347 349 349 349
306 306 307 307 307 307 307 308 309 311 311 311 311 314 324 328 338 340 344 335 342 345 349 351 356 352 357 357 358 355 355 355 352 350 349 347 345 342 348 349 350 349 347 351 351
308 308 307 307 307 307 308 309 309 310 311 311 312 317 323 321 340 342 345 343 347 347 350 351 354 354 356 359 357 358 360 352 352 354 350 345 347 346 349 349 350 350 348 346 347
308 309 309 308 308 308 309 309 310 311 312 311 314 319 320 327 330 339 343 343 348 348 349 347 352 352 355 349 349 350 353 355 348 348 348 345 349 345 349 349 351 350 349 347 344
309 309 310 309 309 308 309 310 311 313 312 313 322 322 327 329 329 336 342 340 341 341 342 343 347 349 345 350 351 350 352 351 351 347 349 346 348 345 349 349 350 349 349 348 345
309 309 310 310 310 309 310 310 313 316 316 320 321 321 322 331 329 331 336 340 334 334 335 338 339 340 349 349 352 352 352 350 351 348 348 350 347 346 345 350 350 349 348 347 346
309 309 310 310 311 311 310 313 316 318 323 318 321 321 324 327 328 328 332 336 335 337 339 336 344 348 343 346 346 348 352 354 352 348 348 350 350 347 342 346 346 348 348 347 346
309 310 310 311 311 311 311 310 317 318 318 317 319 320 322 324 324 324 330 336 337 340 337 337 344 343 341 342 346 351 354 351 344 339 341 339 338 342 343 343 342 344 345 346 346
309 310 310 311 312 315 314 319 317 317 318 319 319 320 321 322 323 324 331 335 338 339 338 340 341 339 339 340 340 348 347 344 342 338 336 336 336 335 346 345 343 343 342 343 344
309 310 310 311 315 313 313 317 318 318 319 321 321 321 323 323 326 325 331 334 335 337 336 336 336 338 336 336 338 343 342 342 339 336 339 333 340 333 338 345 348 347 346 343 342
309 310 310 310 313 312 315 317 319 319 327 325 319 322 321 325 327 327 330 333 335 336 335 337 336 336 335 335 336 335 337 337 337 334 333 334 333 333 335 340 340 343 349 347 344
309 309 311 313 314 314 315 319 320 320 326 327 320 322 324 324 327 325 328 331 332 335 332 333 332 334 333 334 333 333 334 330 327 329 334 333 333 333 332 336 337 339 339 347 348
309 310 312 313 313 318 315 316 318 322 324 325 321 322 323 324 325 326 326 328 329 334 333 332 333 331 333 334 331 330 329 334 336 333 334 329 330 329 330 331 333 334 335 338 346
310 311 315 316 315 314 317 317 325 322 326 324 323 318 323 320 323 323 324 323 322 329 328 331 331 331 331 332 333 331 329 332 338 335 334 326 329 329 330 340 335 332 332 334 338
309 312 317 317 318 315 314 320 318 321 324 320 320 320 321 320 319 321 320 320 320 325 330 327 329 328 330 329 330 330 332 328 329 326 326 326 324 327 342 345 345 333 335 339 338
310 317 320 320 319 315 314 317 319 321 318 318 321 323 325 325 323 318 318 320 321 322 325 328 329 327 328 329 327 328 326 330 324 333 332 326 324 340 346 348 354 342 340 342 348
315 317 319 317 316 308 311 312 317 316 318 318 318 319 323 324 324 319 318 321 321 321 322 322 326 329 324 326 325 322 324 323 322 322 327 327 326 335 344 346 355 357 353 357 356
308 320 319 314 309 304 309 313 314 316 313 315 316 316 321 322 322 322 324 325 324 326 323 318 319 325 327 323 323 323 326 320 325 328 320 321 324 336 344 354 357 361 361 357 356
307 311 319 315 316 313 312 315 315 316 314 316 317 321 320 321 322 323 324 323 322 324 327 323 322 325 325 323 325 328 328 322 319 320 325 327 327 335 343 352 354 360 359 359 358
312 324 317 310 310 316 319 319 319 317 315 315 315 316 318 319 319 320 322 324 324 328 335 325 319 323 325 325 325 328 328 327 325 327 327 329 334 340 345 353 349 348 348 350 358
314 320 316 320 319 322 321 320 321 322 317 316 317 316 317 318 319 320 327 328 326 328 325 319 323 322 322 322 325 327 328 330 329 328 333 331 335 337 342 350 348 343 343 344 343
316 317 314 315 317 321 318 321 320 321 317 318 318 321 316 317 318 328 329 329 330 326 326 320 325 326 327 330 330 333 332 335 335 334 334 333 338 340 338 338 337 337 339 344 345
309 313 314 314 318 322 321 322 322 320 321 319 325 326 326 328 325 325 324 323 324 324 324 324 322 323 326 326 327 330 331 339 346 344 342 333 340 339 337 338 337 334 335 339 340
Wind_Speed
12 12 13 14 14 14 14 14 13 13 13 13 12 13 14 17 18 9 6 5 3 4 2 4 6 9 1 2 3 2 4 2 2 0 5 3 4 2 3 13 4 7 7 9 30
14 13 14 14 15 15 15 15 13 13 13 13 13 14 15 19 11 9 7 9 4 4 3 2 3 6 3 2 2 3 3 3 3 3 2 5 7 9 5 6 1 5 10 28 31
15 14 15 16 16 15 15 14 13 13 14 14 14 15 17 13 3 5 9 12 7 7 2 3 2 3 3 1 3 1 2 2 7 6 11 6 4 2 12 4 6 12 19 20 26
15 15 16 16 16 16 16 15 13 14 14 14 14 14 15 3 2 2 11 11 8 8 3 2 2 3 3 1 1 3 7 4 8 3 8 4 5 6 6 6 10 15 23 21 20
17 18 18 18 17 17 16 16 14 13 14 13 13 13 5 3 7 6 11 10 11 10 4 2 3 2 1 2 0 1 4 5 10 11 10 7 10 6 5 8 14 17 18 23 21
19 19 18 18 18 18 17 16 15 14 13 11 9 9 3 4 3 12 12 14 12 11 5 5 3 3 2 3 4 4 5 9 8 10 6 2 3 8 4 13 15 19 19 19 22
21 20 20 20 20 20 18 16 15 14 13 9 6 4 1 10 3 15 15 15 14 11 3 9 7 2 3 4 4 4 6 11 12 4 5 9 1 6 11 16 18 17 19 18 19
23 23 22 22 21 20 19 16 15 14 9 5 3 1 6 2 6 18 17 8 12 15 15 10 8 2 2 5 5 5 3 5 8 8 5 7 10 5 14 17 17 17 17 18 18
25 25 25 23 21 21 18 17 15 7 3 2 0 1 8 5 7 21 20 8 18 16 15 4 4 3 2 2 5 3 2 6 7 6 4 6 7 8 16 15 16 17 18 18 17
26 26 25 24 23 21 18 17 3 2 2 1 1 3 5 3 4 8 24 20 3 1 4 4 2 2 3 4 4 3 5 5 6 3 10 6 11 8 17 17 19 18 18 18 19
27 27 26 26 24 21 18 2 3 2 3 7 5 4 5 7 6 7 15 9 2 1 3 2 4 6 9 9 12 5 3 9 16 8 5 11 10 10 18 14 13 16 17 19 21
28 28 26 26 25 17 8 2 3 2 7 10 9 7 11 4 5 5 11 6 6 6 1 4 5 10 10 8 9 7 6 8 9 6 3 2 8 6 17 23 24 20 19 21 18
29 29 27 27 19 2 6 3 14 8 2 7 6 6 5 10 8 7 11 6 4 4 4 5 9 10 8 10 12 5 5 5 3 5 6 5 7 2 12 18 16 18 15 17 20
30 29 28 27 2 11 6 12 18 6 4 6 4 8 6 6 5 9 12 6 2 8 5 6 3 3 4 6 3 6 3 6 2 4 2 4 6 6 4 9 13 19 18 19 19
31 30 27 22 14 4 6 18 6 4 1 2 4 2 4 9 2 4 5 4 8 6 4 8 4 6 7 5 4 9 2 5 2 3 1 3 3 7 4 7 11 16 21 19 19
32 30 26 10 8 9 11 13 2 5 5 2 5 6 6 2 1 1 4 4 3 3 1 8 2 3 7 5 5 9 2 4 5 3 4 4 5 7 5 6 7 6 14 20 19
32 27 22 13 4 4 15 3 5 3 5 1 5 4 3 6 3 2 4 2 6 2 5 8 11 4 4 6 3 5 6 4 5 5 5 3 2 9 9 8 11 18 8 17 19
32 24 14 16 5 5 1 5 3 4 6 4 2 3 6 3 4 4 4 6 4 4 3 6 9 3 5 7 5 2 7 5 6 4 6 4 4 6 3 10 11 13 7 9 12
30 12 8 5 13 8 5 3 7 6 3 7 3 5 1 4 5 5 6 5 7 9 10 6 7 4 4 3 6 3 4 5 5 2 3 4 8 9 15 17 18 14 11 12 9
22 10 6 4 14 8 4 5 4 4 4 4 2 1 4 2 5 5 7 4 8 13 4 5 5 6 4 3 3 7 4 2 2 3 5 5 4 5 13 14 17 14 8 7 7
6 4 5 13 9 5 4 7 5 6 3 5 2 2 5 4 4 5 4 4 2 2 10 7 7 16 2 3 7 2 3 3 4 5 4 2 5 5 9 9 7 8 9 10 10
7 2 2 17 4 1 3 5 3 3 2 4 3 8 6 7 6 5 5 4 5 2 6 7 5 6 13 6 3 4 5 5 5 5 2 4 5 4 5 7 4 8 10 9 9
2 3 2 5 2 2 4 4 3 4 5 4 4 5 1 6 4 3 1 3 6 4 0 6 0 2 8 6 4 2 2 4 5 3 3 4 4 1 6 7 9 10 8 8 6
2 2 4 3 0 4 3 7 5 3 7 6 7 6 4 5 2 6 3 1 5 5 7 7 3 6 6 7 4 3 2 2 6 4 3 5 5 3 4 5 7 7 7 9 6
2 1 2 2 2 2 2 4 6 4 4 2 4 7 9 7 5 4 1 2 4 8 4 4 2 2 5 6 2 4 6 3 5 4 5 3 7 4 3 3 6 7 8 7 7
2 3 4 2 4 3 4 1 5 3 5 7 6 8 6 6 8 7 5 2 2 5 3 3 3 1 3 0 4 4 4 6 6 3 5 5 3 0 5 5 7 7 7 7 8
6 3 3 3 4 1 2 3 6 8 7 10 6 5 5 6 6 6 4 4 6 7 2 1 4 3 4 4 4 4 2 8 6 5 1 3 1 5 6 6 4 8 8 9 9
Wind_Direction
354 354 355 352 350 348 346 343 342 340 338 336 333 332 328 323 319 295 246 223 158 200 303 307 286 289 295 69 74 77 59 58 210 307 284 174 134 183 106 142 191 176 143 163 157
351 349 348 347 347 346 344 341 340 337 336 334 333 333 328 323 315 255 240 193 192 190 210 275 310 33 66 20 41 75 101 220 210 276 302 294 158 161 123 167 317 86 96 135 149
353 348 344 344 343 344 342 339 339 337 334 332 333 332 328 325 288 246 189 184 189 184 222 304 53 36 91 321 8 331 214 318 278 285 281 223 175 143 128 209 200 162 144 151 159
351 344 340 340 339 340 338 337 333 329 329 330 331 330 329 338 216 274 186 186 185 179 189 118 57 59 55 45 2 11 248 217 282 309 348 213 161 128 159 218 163 164 157 158 168
347 340 336 335 335 335 335 332 326 321 322 325 327 333 337 309 252 187 174 164 164 175 197 106 25 109 160 171 189 165 269 250 257 278 282 225 188 177 215 125 134 150 152 169 174
350 347 341 336 334 332 330 329 321 317 316 316 321 332 349 297 271 184 175 154 179 182 192 187 180 239 126 216 201 221 263 277 248 249 262 175 189 126 166 141 150 164 165 174 177
355 348 341 335 332 328 326 325 317 313 308 306 310 333 295 240 234 190 181 178 190 206 211 219 156 201 151 324 219 262 316 323 273 225 207 128 274 223 158 157 168 181 181 181 189
357 352 343 338 332 326 325 323 312 305 296 286 297 321 252 251 232 199 194 195 213 223 244 295 199 155 212 303 305 298 90 349 289 138 194 149 253 229 166 161 180 185 195 194 202
355 352 347 340 331 325 324 320 308 286 271 241 115 124 269 295 206 213 208 212 215 224 236 238 103 206 349 38 346 346 253 218 283 211 131 161 243 202 175 181 185 193 197 202 205
351 348 346 341 333 325 325 324 280 244 158 120 290 339 273 241 228 200 213 221 263 290 305 126 152 259 69 74 260 287 319 313 256 266 205 171 249 176 184 190 198 199 200 206 208
349 346 343 342 334 326 327 299 28 17 207 207 198 245 292 336 311 214 196 178 226 327 227 71 81 244 258 208 237 270 258 279 282 253 161 215 245 193 195 203 210 211 211 208 215
344 342 340 339 331 319 327 42 73 12 302 239 239 257 265 327 307 294 163 159 149 221 347 24 248 233 242 258 229 201 242 267 289 38 141 163 255 222 186 210 210 205 212 216 219
341 339 338 339 329 344 311 250 330 328 191 289 211 218 189 157 207 256 149 172 170 203 203 182 244 321 321 323 328 202 185 261 229 341 2 18 310 294 218 223 219 223 219 222 216
339 335 335 340 16 330 281 327 334 164 42 271 229 260 151 148 274 221 178 142 222 223 203 234 314 105 328 305 322 325 237 237 194 58 286 39 289 294 312 248 212 221 217 221 220
337 333 329 331 303 266 316 330 12 85 342 161 209 149 165 155 233 245 165 81 194 216 117 249 302 335 316 251 19 260 315 283 127 112 104 340 48 267 342 285 253 218 226 221 218
332 330 322 320 290 266 330 339 63 45 255 309 159 166 129 167 251 64 136 66 158 208 289 252 269 195 229 262 195 260 213 45 45 83 10 222 120 292 279 238 297 267 211 219 215
330 324 307 279 243 274 330 32 49 156 308 310 211 152 166 170 202 166 136 149 177 118 289 307 280 240 197 300 14 76 54 338 346 7 225 103 114 236 284 322 270 283 218 213 210
329 320 293 260 236 255 44 57 194 244 263 347 322 86 161 153 254 209 174 225 246 135 112 202 316 204 164 174 217 346 154 157 219 212 250 354 263 259 325 306 313 291 270 239 217
332 319 279 274 212 196 79 105 211 207 297 330 356 97 239 188 169 144 222 236 212 166 183 165 263 282 218 177 128 304 251 206 139 59 76 245 295 317 349 338 355 339 33 9 344
333 325 272 238 161 138 82 228 237 238 337 2 75 35 146 198 155 160 189 234 232 185 161 220 302 224 278 113 249 158 175 297 3 173 254 278 285 246 326 326 335 349 52 56 79
345 6 329 150 139 54 169 231 265 256 349 12 353 297 232 190 201 181 196 272 147 204 171 155 161 258 31 181 238 323 273 70 130 124 186 227 263 227 277 296 328 20 28 24 3
349 16 71 155 60 45 173 202 255 281 25 293 211 215 218 197 200 181 191 174 325 183 139 201 159 237 242 255 274 206 151 131 111 277 169 157 279 313 319 302 149 55 50 27 24
18 268 129 326 135 283 284 283 242 264 245 224 255 214 275 193 152 177 277 122 333 23 329 185 9 40 347 357 4 130 149 125 106 78 197 127 258 335 352 338 322 118 136 129 98
64 24 332 55 99 122 11 292 274 269 256 199 239 208 170 197 304 174 176 12 0 42 47 79 120 151 183 216 178 269 306 180 130 117 190 218 167 167 347 344 357 6 10 349 5
28 327 188 268 304 11 124 306 291 294 260 262 294 224 187 198 159 181 209 336 39 341 49 90 116 197 255 252 191 239 244 207 164 172 152 225 158 158 151 46 347 331 347 357 350
41 31 350 290 318 352 75 260 278 290 235 264 218 265 195 184 186 188 142 169 192 1 83 356 199 122 302 261 232 214 172 115 66 63 121 161 84 95 118 65 22 358 339 330 326
358 351 107 306 357 47 224 310 282 321 261 236 263 120 104 182 175 173 181 174 164 152 187 100 126 74 271 351 348 333 349 109 96 22 140 124 322 359 70 79 30 345 330 319 318